Location: Brady Lake
(41.1624°N, 81.3143°W)
Time: 05:11:15
(UTC+00:00)

N. Korean satellite - Visible Passes

Search period start: 16 August 2022 00:00
Search period end: 26 August 2022 00:00
Orbit: 433 x 470 km, 97.3° (Epoch: 15 August)

Date Brightness Start Highest point End Pass type
(mag) Time Alt. Az. Time Alt. Az. Time Alt. Az.
17 Aug 9.7 09:39:23 10° ENE 09:40:58 13° E 09:42:33 10° ESE visible
19 Aug 9.0 10:01:47 10° NE 10:04:43 24° E 10:07:37 10° SSE visible
22 Aug 9.4 09:51:02 10° NE 09:53:29 18° E 09:55:54 10° SE visible
25 Aug 9.7 09:40:24 10° ENE 09:42:01 13° E 09:43:37 10° ESE visible
